Tracking 27422 objects as of 30-May-2023
HD Live streaming from Space Station
objects crossing your sky now

DIRECTV 9S

Track DIRECTV 9S now!
DIRECTV 9S is classified as:


NORAD ID: 29494
Int'l Code: 2006-043A
Perigee: 35,781.1 km
Apogee: 35,806.2 km
Inclination: 0.1 °
Period: 1,436.1 minutes
Semi major axis: 42164 km
RCS: 13.8838 m2 (large)
Launch date: October 13, 2006
Source: United States (US)
Launch site: FRENCH GUIANA (FRGUI)

DIRECTV 9S will supply television broadcast services to the contiguous United States of America, Alaska and Hawaii
Your satellite tracking list
Your tracking list is empty




NASA's NSSDC Master Catalog

Two Line Element Set (TLE):
1 29494U 06043A   23149.84779743 -.00000097  00000-0  00000-0 0  9996
2 29494   0.0643 279.0135 0002979 150.6765  21.4282  1.00272144 40214
Source of the keplerian elements: AFSPC